FW3092 Weather Reports


Display with metric or nautical units.
time (UTC)temp
F
wind
direction
speed
MPH
gust
MPH
rain 1hr
in
rain 24hr
in
rain mn
in
humidity
%
barometer
mb
20260906103020 57 5 0.0 3.0 0.00 0.00 0.00 91 959.5
20260906101519 57 355 0.0 2.0 0.00 0.00 0.00 91 959.4
20260906100018 57 355 1.0 3.0 0.00 0.00 0.00 91 959.2
20260906094527 57 360 0.0 2.0 0.00 0.00 0.00 91 959.0
20260906093015 57 5 0.0 3.0 0.00 0.00 0.00 91 958.9
20260906091513 57 5 1.0 4.0 0.00 0.00 0.00 91 958.7
20260906090013 57 304 1.0 3.0 0.00 0.00 0.00 91 958.6
20260906084514 57 313 0.0 3.0 0.00 0.00 0.00 91 958.6
20260906083010 57 308 0.0 3.0 0.00 0.00 0.00 91 958.3
20260906081528 57 279 2.0 4.0 0.00 0.00 0.00 91 958.1
20260906080007 57 295 1.0 5.0 0.00 0.00 0.00 91 958.1
20260906074507 57 286 0.0 3.0 0.00 0.00 0.00 91 958.3
20260906073005 57 287 0.0 2.0 0.00 0.00 0.00 91 958.2
20260906071505 58 287 1.0 4.0 0.00 0.00 0.00 91 958.3
20260906070004 58 278 1.0 4.0 0.00 0.00 0.00 91 958.2
20260906064503 58 277 1.0 6.0 0.00 0.00 0.00 91 958.2
20260906063002 58 254 2.0 4.0 0.00 0.00 0.00 91 958.3
20260906061601 58 284 1.0 4.0 0.00 0.00 0.00 91 958.4
20260906061501 58 284 1.0 4.0 0.00 0.00 0.00 91 958.3
20260906060100 57 298 1.0 4.0 0.00 0.00 0.00 91 958.4
20260906054558 58 271 1.0 4.0 0.00 0.00 0.00 91 958.6
20260906053106 58 281 2.0 4.0 0.00 0.00 0.00 91 958.6
20260906051557 58 284 1.0 3.0 0.00 0.00 0.00 91 958.5
20260906050115 58 269 2.0 4.0 0.00 0.00 0.00 91 958.6
20260906044557 58 269 2.0 4.0 0.00 0.00 0.00 90 958.4
20260906043056 58 283 1.0 4.0 0.00 0.00 0.00 90 958.8
20260906041553 58 281 1.0 3.0 0.00 0.00 0.00 90 958.5
20260906040105 58 273 2.0 4.0 0.00 0.00 0.00 90 958.5
20260906034600 58 274 0.0 3.0 0.00 0.00 0.00 89 958.5
20260906033049 59 265 0.0 4.0 0.00 0.00 0.00 89 958.4
20260906031551 59 296 1.0 4.0 0.00 0.00 0.00 89 958.3
20260906030047 59 271 0.0 2.0 0.00 0.00 0.00 89 958.3
20260906024546 59 270 0.0 3.0 0.00 0.00 0.00 88 958.2
20260906023050 60 355 0.0 2.0 0.00 0.00 0.00 88 958.2
20260906021557 60 355 0.0 2.0 0.00 0.00 0.00 88 958.2
20260906020054 61 11 0.0 1.0 0.00 0.00 0.00 87 958.2
20260906014552 61 5 0.0 3.0 0.00 0.00 0.00 87 958.1
20260906013044 61 314 0.0 2.0 0.00 0.00 0.00 86 957.9
20260906011542 62 314 0.0 2.0 0.00 0.00 0.00 86 958.0
20260906010042 62 355 0.0 7.0 0.00 0.00 0.00 86 957.9
20260906004540 63 317 0.0 4.0 0.00 0.00 0.00 86 957.8
20260906003044 63 289 0.0 3.0 0.00 0.00 0.00 85 957.7
20260906001539 63 336 0.0 2.0 0.00 0.00 0.00 85 957.6
20260906000038 64 97 0.0 3.0 0.00 0.00 0.00 84 957.5
20260905234537 65 303 1.0 5.0 0.00 0.00 0.00 83 957.5
20260905233041 65 43 0.0 3.0 0.00 0.00 0.00 82 957.5
20260905231536 66 327 0.0 4.0 0.00 0.00 0.00 81 957.6
20260905230035 66 68 1.0 3.0 0.00 0.00 0.00 81 957.7
20260905224534 66 130 0.0 5.0 0.00 0.00 0.00 81 957.5
20260905223039 67 246 3.0 6.0 0.00 0.00 0.00 80 957.6
20260905221543 67 267 3.0 7.0 0.00 0.00 0.00 78 957.3
20260905220034 69 246 1.0 5.0 0.00 0.00 0.00 76 957.3
20260905214532 69 53 1.0 3.0 0.00 0.00 0.00 77 957.0
20260905213034 70 265 3.0 8.0 0.00 0.00 0.00 76 956.9
20260905211542 71 256 3.0 7.0 0.00 0.00 0.00 74 956.9
20260905210033 71 306 2.0 6.0 0.00 0.00 0.00 75 956.8
20260905204530 71 355 2.0 6.0 0.00 0.00 0.00 75 956.7
20260905203033 70 152 1.0 6.0 0.00 0.00 0.00 76 956.8
20260905201535 70 280 1.0 4.0 0.00 0.00 0.00 75 956.8
20260905200045 70 338 1.0 4.0 0.00 0.00 0.00 75 956.9
20260905194532 70 284 2.0 6.0 0.00 0.00 0.00 74 956.7
20260905193027 71 5 0.0 0.0 0.00 0.00 0.00 73 956.8
20260905191527 71 5 0.0 3.0 0.00 0.00 0.00 71 956.8
20260905190026 71 19 1.0 4.0 0.00 0.00 0.00 69 956.8
20260905184532 72 262 3.0 6.0 0.00 0.00 0.00 68 956.8
20260905183025 72 286 2.0 7.0 0.00 0.00 0.00 69 956.8
20260905181523 72 281 1.0 7.0 0.00 0.00 0.00 70 956.9
20260905180020 71 294 2.0 5.0 0.00 0.00 0.00 72 956.9
20260905174520 70 24 2.0 6.0 0.00 0.00 0.00 72 956.9
20260905173019 70 5 2.0 5.0 0.00 0.00 0.00 73 956.9
20260905171535 69 286 3.0 7.0 0.00 0.00 0.00 75 957.1
20260905170022 69 279 1.0 9.0 0.00 0.00 0.00 73 957.1
20260905164517 71 360 2.0 6.0 0.00 0.00 0.00 72 957.2
20260905163018 70 74 0.0 8.0 0.00 0.00 0.00 74 957.0
20260905161517 70 248 1.0 5.0 0.00 0.00 0.00 74 957.3
20260905160024 69 355 1.0 8.0 0.00 0.00 0.00 76 957.3
20260905154513 69 68 2.0 7.0 0.00 0.00 0.00 76 957.3
20260905153010 67 355 1.0 5.0 0.00 0.00 0.00 78 957.3
20260905151504 67 333 2.0 9.0 0.00 0.00 0.00 79 957.4
20260905150002 67 282 1.0 8.0 0.00 0.00 0.00 81 957.4
20260905144559 66 336 3.0 6.0 0.00 0.00 0.00 81 957.3
20260905143057 66 243 3.0 9.0 0.00 0.00 0.00 82 957.3
20260905141556 65 63 2.0 9.0 0.00 0.00 0.00 83 957.3
20260905140053 65 84 2.0 8.0 0.00 0.00 0.00 84 957.4
20260905134553 64 139 0.0 5.0 0.00 0.00 0.00 86 957.3
20260905133046 64 281 1.0 8.0 0.00 0.00 0.00 86 957.1
20260905131542 62 211 1.0 5.0 0.00 0.00 0.00 89 957.1
20260905130037 61 44 1.0 5.0 0.00 0.00 0.00 91 957.3
20260905124543 60 293 2.0 7.0 0.00 0.00 0.00 91 957.5
20260905123029 59 266 2.0 8.0 0.00 0.00 0.00 91 957.5
20260905121524 58 290 2.0 4.0 0.00 0.00 0.00 91 957.6
20260905120021 58 286 1.0 3.0 0.00 0.00 0.00 91 957.2
20260905114520 58 339 0.0 4.0 0.00 0.00 0.00 91 957.0
20260905113019 57 288 1.0 3.0 0.00 0.00 0.00 91 957.0
20260905111517 57 309 0.0 5.0 0.00 0.00 0.00 91 956.9
20260905110015 57 271 2.0 5.0 0.00 0.00 0.00 91 956.9
20260905104523 57 255 2.0 7.0 0.00 0.00 0.00 91 956.4